| time (UTC) | temp F | wind direction | speed knots | gust knots | rain 1hr in | rain 24hr in | rain mn in | humidity % | barometer mb |
| 20260506002900 | 74 | 165 | 2.6 | 7.8 | 0.00 | 0.01 | 0.00 | 35 | 1008.1 |
| 20260506002438 | 74 | 240 | 2.6 | 8.7 | 0.00 | 0.01 | 0.00 | 35 | 1008.0 |
| 20260506002402 | 74 | 240 | 2.6 | 8.7 | 0.00 | 0.01 | 0.00 | 35 | 1008.0 |
| 20260506001901 | 75 | 198 | 2.6 | 7.8 | 0.00 | 0.01 | 0.00 | 36 | 1007.9 |
| 20260506001400 | 75 | 162 | 4.3 | 7.8 | 0.00 | 0.01 | 0.00 | 35 | 1008.0 |
| 20260506001059 | 75 | 180 | 4.3 | 10.4 | 0.00 | 0.01 | 0.00 | 35 | 1007.9 |
| 20260506001004 | 75 | 180 | 4.3 | 10.4 | 0.00 | 0.01 | 0.00 | 35 | 1007.9 |
| 20260506000900 | 75 | 180 | 4.3 | 10.4 | 0.00 | 0.01 | 0.00 | 35 | 1007.9 |
| 20260506000535 | 75 | 223 | 3.5 | 9.6 | 0.00 | 0.01 | 0.00 | 35 | 1007.9 |
| 20260506000440 | 75 | 223 | 3.5 | 9.6 | 0.00 | 0.01 | 0.00 | 35 | 1007.9 |
| 20260506000401 | 75 | 223 | 3.5 | 9.6 | 0.00 | 0.01 | 0.00 | 35 | 1007.9 |
| 20260505235900 | 75 | 143 | 3.5 | 8.7 | 0.00 | 0.01 | 0.00 | 35 | 1007.8 |
| 20260505235402 | 76 | 185 | 3.5 | 7.8 | 0.00 | 0.01 | 0.00 | 36 | 1007.9 |
| 20260505234903 | 76 | 146 | 3.5 | 9.6 | 0.00 | 0.01 | 0.00 | 35 | 1007.8 |
| 20260505234400 | 76 | 188 | 4.3 | 12.2 | 0.00 | 0.01 | 0.00 | 35 | 1007.9 |
| 20260505234004 | 76 | 139 | 5.2 | 9.6 | 0.00 | 0.01 | 0.00 | 35 | 1007.9 |
| 20260505233900 | 76 | 139 | 5.2 | 9.6 | 0.00 | 0.01 | 0.00 | 35 | 1007.9 |
| 20260505233400 | 77 | 197 | 6.1 | 11.3 | 0.00 | 0.01 | 0.00 | 35 | 1007.8 |
| 20260505232900 | 76 | 194 | 4.3 | 11.3 | 0.00 | 0.01 | 0.00 | 35 | 1007.7 |
| 20260505232401 | 77 | 170 | 3.5 | 12.2 | 0.00 | 0.01 | 0.00 | 35 | 1007.7 |
| 20260505232003 | 77 | 96 | 4.3 | 9.6 | 0.00 | 0.01 | 0.00 | 35 | 1007.8 |
| 20260505231907 | 77 | 96 | 4.3 | 9.6 | 0.00 | 0.01 | 0.00 | 35 | 1007.8 |
| 20260505231400 | 77 | 246 | 4.3 | 12.2 | 0.00 | 0.01 | 0.00 | 34 | 1007.7 |
| 20260505230900 | 77 | 169 | 4.3 | 12.2 | 0.00 | 0.01 | 0.00 | 34 | 1007.7 |
| 20260505230456 | 77 | 238 | 5.2 | 9.6 | 0.00 | 0.01 | 0.00 | 35 | 1007.7 |
| 20260505230401 | 77 | 238 | 5.2 | 9.6 | 0.00 | 0.01 | 0.00 | 35 | 1007.7 |
| 20260505225900 | 77 | 196 | 4.3 | 12.2 | 0.00 | 0.01 | 0.00 | 33 | 1007.6 |
| 20260505225400 | 77 | 162 | 5.2 | 9.6 | 0.00 | 0.01 | 0.00 | 34 | 1007.6 |
| 20260505224901 | 78 | 187 | 6.1 | 10.4 | 0.00 | 0.01 | 0.00 | 33 | 1007.6 |
| 20260505224400 | 78 | 194 | 6.1 | 13.0 | 0.00 | 0.01 | 0.00 | 33 | 1007.6 |
| 20260505223900 | 78 | 213 | 5.2 | 12.2 | 0.00 | 0.01 | 0.00 | 33 | 1007.6 |
| 20260505223400 | 78 | 175 | 5.2 | 12.2 | 0.00 | 0.01 | 0.00 | 33 | 1007.7 |
| 20260505222900 | 78 | 158 | 4.3 | 14.8 | 0.00 | 0.01 | 0.00 | 33 | 1007.6 |
| 20260505222400 | 78 | 197 | 4.3 | 10.4 | 0.00 | 0.01 | 0.00 | 34 | 1007.6 |
| 20260505221900 | 78 | 243 | 7.0 | 10.4 | 0.00 | 0.01 | 0.00 | 34 | 1007.7 |
| 20260505221402 | 78 | 221 | 7.0 | 13.0 | 0.00 | 0.01 | 0.00 | 32 | 1007.9 |
| 20260505220900 | 79 | 197 | 7.0 | 14.8 | 0.00 | 0.01 | 0.00 | 33 | 1007.7 |
| 20260505220400 | 79 | 141 | 8.7 | 16.5 | 0.00 | 0.01 | 0.00 | 34 | 1007.8 |
| 20260505215900 | 79 | 244 | 8.7 | 15.6 | 0.00 | 0.01 | 0.00 | 33 | 1007.7 |
| 20260505215400 | 80 | 198 | 7.8 | 17.4 | 0.00 | 0.01 | 0.00 | 33 | 1007.7 |
| 20260505214901 | 80 | 167 | 8.7 | 14.8 | 0.00 | 0.01 | 0.00 | 33 | 1007.7 |
| 20260505214400 | 81 | 242 | 8.7 | 18.2 | 0.00 | 0.01 | 0.00 | 33 | 1007.7 |
| 20260505213901 | 81 | 188 | 7.8 | 19.1 | 0.00 | 0.01 | 0.00 | 34 | 1007.6 |
| 20260505213401 | 81 | 228 | 8.7 | 15.6 | 0.00 | 0.01 | 0.00 | 34 | 1007.5 |
| 20260505212901 | 81 | 174 | 8.7 | 20.0 | 0.00 | 0.01 | 0.00 | 34 | 1007.5 |
| 20260505212404 | 80 | 145 | 7.8 | 13.9 | 0.00 | 0.01 | 0.00 | 35 | 1007.3 |
| 20260505211901 | 80 | 214 | 7.0 | 19.1 | 0.00 | 0.01 | 0.00 | 34 | 1007.4 |
| 20260505211401 | 80 | 148 | 6.1 | 13.0 | 0.00 | 0.01 | 0.00 | 34 | 1007.4 |
| 20260505210901 | 80 | 193 | 8.7 | 15.6 | 0.00 | 0.01 | 0.00 | 34 | 1007.4 |
| 20260505210401 | 81 | 171 | 7.8 | 17.4 | 0.00 | 0.01 | 0.00 | 34 | 1007.5 |
| 20260505205901 | 81 | 179 | 7.8 | 18.2 | 0.00 | 0.01 | 0.00 | 34 | 1007.4 |
| 20260505205401 | 82 | 233 | 7.8 | 16.5 | 0.00 | 0.01 | 0.00 | 34 | 1007.5 |
| 20260505204901 | 81 | 229 | 7.0 | 13.0 | 0.00 | 0.01 | 0.00 | 36 | 1007.5 |
| 20260505204401 | 81 | 234 | 7.0 | 19.1 | 0.00 | 0.01 | 0.00 | 34 | 1007.5 |
| 20260505203901 | 81 | 184 | 6.1 | 13.9 | 0.00 | 0.01 | 0.00 | 34 | 1007.4 |
| 20260505203401 | 80 | 210 | 7.0 | 13.9 | 0.00 | 0.01 | 0.00 | 35 | 1007.6 |
| 20260505202901 | 80 | 136 | 7.8 | 13.0 | 0.00 | 0.01 | 0.00 | 35 | 1007.7 |
| 20260505202401 | 81 | 196 | 7.8 | 13.0 | 0.00 | 0.01 | 0.00 | 35 | 1007.5 |
| 20260505201901 | 81 | 244 | 7.8 | 17.4 | 0.00 | 0.01 | 0.00 | 35 | 1007.7 |
| 20260505201401 | 81 | 219 | 9.6 | 13.9 | 0.00 | 0.01 | 0.00 | 35 | 1007.8 |
| 20260505200901 | 81 | 227 | 9.6 | 19.1 | 0.00 | 0.01 | 0.00 | 35 | 1007.7 |
| 20260505200401 | 81 | 192 | 8.7 | 14.8 | 0.00 | 0.01 | 0.00 | 35 | 1007.7 |
| 20260505195901 | 81 | 202 | 9.6 | 15.6 | 0.00 | 0.01 | 0.00 | 35 | 1008.0 |
| 20260505195401 | 81 | 214 | 9.6 | 17.4 | 0.00 | 0.01 | 0.00 | 35 | 1008.0 |
| 20260505194901 | 80 | 184 | 8.7 | 22.6 | 0.00 | 0.01 | 0.00 | 35 | 1008.1 |
| 20260505194401 | 80 | 207 | 7.8 | 14.8 | 0.00 | 0.01 | 0.00 | 34 | 1008.0 |
| 20260505193901 | 80 | 247 | 7.8 | 16.5 | 0.00 | 0.01 | 0.00 | 35 | 1008.1 |
| 20260505193402 | 80 | 213 | 7.8 | 13.9 | 0.00 | 0.01 | 0.00 | 35 | 1008.1 |
| 20260505192901 | 80 | 166 | 8.7 | 15.6 | 0.00 | 0.01 | 0.00 | 35 | 1008.3 |
| 20260505192401 | 80 | 211 | 7.8 | 18.2 | 0.00 | 0.01 | 0.00 | 34 | 1008.3 |
| 20260505191901 | 80 | 171 | 7.8 | 17.4 | 0.00 | 0.01 | 0.00 | 35 | 1008.3 |
| 20260505191402 | 79 | 140 | 8.7 | 14.8 | 0.00 | 0.01 | 0.00 | 36 | 1008.4 |
| 20260505191004 | 79 | 136 | 8.7 | 15.6 | 0.00 | 0.01 | 0.00 | 36 | 1008.5 |
| 20260505190901 | 79 | 136 | 8.7 | 15.6 | 0.00 | 0.01 | 0.00 | 36 | 1008.5 |
| 20260505190401 | 79 | 199 | 9.6 | 18.2 | 0.00 | 0.01 | 0.00 | 36 | 1008.4 |
| 20260505185901 | 80 | 218 | 9.6 | 17.4 | 0.00 | 0.01 | 0.00 | 36 | 1008.5 |
| 20260505185401 | 80 | 213 | 7.8 | 19.1 | 0.00 | 0.01 | 0.00 | 36 | 1008.6 |
| 20260505184902 | 80 | 175 | 7.8 | 18.2 | 0.00 | 0.01 | 0.00 | 37 | 1008.8 |
| 20260505184401 | 80 | 170 | 9.6 | 17.4 | 0.00 | 0.01 | 0.00 | 35 | 1008.8 |
| 20260505183901 | 80 | 136 | 9.6 | 18.2 | 0.00 | 0.01 | 0.00 | 37 | 1008.9 |
| 20260505183401 | 80 | 242 | 9.6 | 18.2 | 0.00 | 0.01 | 0.00 | 37 | 1008.9 |
| 20260505182905 | 80 | 175 | 7.8 | 20.9 | 0.00 | 0.01 | 0.00 | 36 | 1009.0 |
| 20260505182401 | 80 | 211 | 7.0 | 13.9 | 0.00 | 0.01 | 0.00 | 36 | 1009.0 |
| 20260505181901 | 80 | 142 | 7.8 | 13.9 | 0.00 | 0.01 | 0.00 | 36 | 1008.9 |
| 20260505181402 | 80 | 190 | 7.0 | 13.9 | 0.00 | 0.01 | 0.00 | 36 | 1008.9 |
| 20260505181314 | 80 | 167 | 6.1 | 13.0 | 0.00 | 0.01 | 0.00 | 37 | 1009.1 |
| 20260505180901 | 80 | 167 | 6.1 | 13.0 | 0.00 | 0.01 | 0.00 | 37 | 1009.1 |
| 20260505180401 | 80 | 135 | 7.8 | 18.2 | 0.00 | 0.01 | 0.00 | 38 | 1009.1 |
| 20260505175901 | 80 | 205 | 7.8 | 16.5 | 0.00 | 0.01 | 0.00 | 37 | 1009.0 |
| 20260505175401 | 80 | 231 | 7.8 | 16.5 | 0.00 | 0.01 | 0.00 | 37 | 1009.2 |
| 20260505174903 | 80 | 156 | 7.8 | 12.2 | 0.00 | 0.01 | 0.00 | 36 | 1009.2 |
| 20260505174401 | 80 | 200 | 7.0 | 13.9 | 0.00 | 0.01 | 0.00 | 37 | 1009.2 |
| 20260505173901 | 80 | 171 | 7.8 | 14.8 | 0.00 | 0.01 | 0.00 | 38 | 1009.1 |
| 20260505173402 | 79 | 209 | 7.8 | 14.8 | 0.00 | 0.01 | 0.00 | 37 | 1009.1 |
| 20260505172901 | 79 | 215 | 7.8 | 15.6 | 0.00 | 0.01 | 0.00 | 36 | 1009.2 |
| 20260505172401 | 79 | 205 | 8.7 | 14.8 | 0.00 | 0.01 | 0.00 | 39 | 1009.3 |
| 20260505171903 | 79 | 207 | 8.7 | 17.4 | 0.00 | 0.01 | 0.00 | 36 | 1009.4 |
| 20260505171402 | 79 | 121 | 8.7 | 13.0 | 0.00 | 0.01 | 0.00 | 37 | 1009.4 |
| 20260505170902 | 79 | 214 | 8.7 | 15.6 | 0.00 | 0.01 | 0.00 | 36 | 1009.4 |
| 20260505170402 | 79 | 164 | 8.7 | 14.8 | 0.00 | 0.01 | 0.00 | 38 | 1009.5 |
| 20260505165901 | 79 | 184 | 8.7 | 13.9 | 0.00 | 0.01 | 0.00 | 39 | 1009.5 |
| 20260505165401 | 78 | 269 | 8.7 | 13.0 | 0.00 | 0.01 | 0.00 | 40 | 1009.5 |
| 20260505164901 | 78 | 196 | 9.6 | 14.8 | 0.00 | 0.01 | 0.00 | 39 | 1009.7 |
| 20260505164401 | 78 | 225 | 9.6 | 17.4 | 0.00 | 0.01 | 0.00 | 39 | 1009.7 |
| 20260505163902 | 78 | 186 | 8.7 | 16.5 | 0.00 | 0.01 | 0.00 | 39 | 1009.9 |
| 20260505163404 | 77 | 254 | 9.6 | 12.2 | 0.00 | 0.01 | 0.00 | 41 | 1010.0 |
| 20260505162901 | 77 | 242 | 9.6 | 17.4 | 0.00 | 0.01 | 0.00 | 38 | 1010.1 |
| 20260505162401 | 78 | 227 | 9.6 | 17.4 | 0.00 | 0.01 | 0.00 | 39 | 1010.2 |
| 20260505161901 | 77 | 230 | 9.6 | 13.9 | 0.00 | 0.01 | 0.00 | 40 | 1010.3 |
| 20260505161403 | 77 | 244 | 9.6 | 15.6 | 0.00 | 0.01 | 0.00 | 39 | 1010.3 |
| 20260505160901 | 77 | 194 | 8.7 | 18.2 | 0.00 | 0.01 | 0.00 | 38 | 1010.4 |
| 20260505160403 | 77 | 226 | 9.6 | 18.2 | 0.00 | 0.01 | 0.00 | 38 | 1010.6 |
| 20260505152901 | 76 | 147 | 6.1 | 16.5 | 0.00 | 0.01 | 0.00 | 46 | 1010.5 |
| 20260505152401 | 76 | 172 | 6.1 | 9.6 | 0.00 | 0.01 | 0.00 | 46 | 1010.6 |
| 20260505151901 | 75 | 196 | 6.1 | 12.2 | 0.00 | 0.01 | 0.00 | 47 | 1010.6 |
| 20260505151438 | 75 | 220 | 5.2 | 11.3 | 0.00 | 0.01 | 0.00 | 47 | 1010.6 |
| 20260505151402 | 75 | 220 | 5.2 | 11.3 | 0.00 | 0.01 | 0.00 | 47 | 1010.6 |
| 20260505150901 | 75 | 187 | 4.3 | 10.4 | 0.00 | 0.01 | 0.00 | 48 | 1010.5 |
| 20260505150401 | 74 | 165 | 4.3 | 9.6 | 0.00 | 0.01 | 0.00 | 51 | 1010.4 |
| 20260505140402 | 71 | 197 | 2.6 | 7.8 | 0.00 | 0.01 | 0.00 | 55 | 1010.8 |
| 20260505124902 | 64 | 134 | 3.5 | 9.6 | 0.00 | 0.01 | 0.00 | 63 | 1011.6 |
| 20260505124402 | 64 | 119 | 3.5 | 8.7 | 0.00 | 0.01 | 0.00 | 63 | 1011.5 |
| 20260505123902 | 63 | 126 | 3.5 | 7.8 | 0.00 | 0.01 | 0.00 | 65 | 1011.6 |
| 20260505123402 | 63 | 136 | 3.5 | 8.7 | 0.00 | 0.01 | 0.00 | 65 | 1011.7 |
| 20260505122904 | 62 | 159 | 3.5 | 7.0 | 0.00 | 0.01 | 0.00 | 67 | 1011.7 |
| 20260505122530 | 62 | 179 | 3.5 | 7.8 | 0.00 | 0.01 | 0.00 | 66 | 1011.7 |
| 20260505122402 | 62 | 179 | 3.5 | 7.8 | 0.00 | 0.01 | 0.00 | 66 | 1011.7 |
| 20260505121902 | 62 | 173 | 3.5 | 7.0 | 0.00 | 0.01 | 0.00 | 67 | 1011.6 |
| 20260505121402 | 61 | 154 | 3.5 | 7.0 | 0.00 | 0.01 | 0.00 | 67 | 1011.6 |
| 20260505120902 | 61 | 109 | 3.5 | 10.4 | 0.00 | 0.01 | 0.00 | 68 | 1011.7 |
| 20260505120402 | 61 | 155 | 3.5 | 10.4 | 0.00 | 0.01 | 0.00 | 68 | 1011.7 |
| 20260505115902 | 60 | 207 | 3.5 | 9.6 | 0.00 | 0.01 | 0.00 | 70 | 1011.7 |
| 20260505115402 | 60 | 146 | 1.7 | 8.7 | 0.00 | 0.01 | 0.00 | 70 | 1011.6 |
| 20260505114902 | 60 | 191 | 2.6 | 5.2 | 0.00 | 0.01 | 0.00 | 71 | 1011.5 |
| 20260505114402 | 59 | 188 | 3.5 | 7.8 | 0.00 | 0.01 | 0.00 | 70 | 1011.5 |
| 20260505113902 | 59 | 170 | 3.5 | 9.6 | 0.00 | 0.01 | 0.00 | 71 | 1011.4 |
| 20260505113403 | 59 | 123 | 2.6 | 7.8 | 0.00 | 0.01 | 0.00 | 71 | 1011.3 |
| 20260505112905 | 58 | 140 | 1.7 | 7.8 | 0.00 | 0.01 | 0.00 | 72 | 1011.2 |
| 20260505112402 | 58 | 161 | 1.7 | 6.1 | 0.00 | 0.01 | 0.00 | 72 | 1011.2 |
| 20260505111902 | 58 | 123 | 3.5 | 6.1 | 0.00 | 0.01 | 0.00 | 72 | 1011.1 |
| 20260505111402 | 58 | 130 | 3.5 | 7.0 | 0.00 | 0.01 | 0.00 | 72 | 1011.0 |
| 20260505110903 | 58 | 116 | 3.5 | 7.8 | 0.00 | 0.01 | 0.00 | 72 | 1011.0 |
| 20260505110402 | 58 | 145 | 2.6 | 7.8 | 0.00 | 0.01 | 0.00 | 72 | 1010.8 |
| 20260505101902 | 57 | 140 | 2.6 | 8.7 | 0.00 | 0.01 | 0.00 | 73 | 1010.3 |
| 20260505101402 | 57 | 159 | 2.6 | 7.0 | 0.00 | 0.01 | 0.00 | 73 | 1010.4 |
| 20260505100902 | 57 | 82 | 1.7 | 6.1 | 0.00 | 0.01 | 0.00 | 73 | 1010.5 |
| 20260505100402 | 57 | 199 | 0.9 | 6.1 | 0.00 | 0.01 | 0.00 | 73 | 1010.3 |
| 20260505095904 | 57 | 171 | 0.9 | 6.1 | 0.00 | 0.01 | 0.00 | 73 | 1010.3 |
| 20260505095402 | 57 | 134 | 0.9 | 3.5 | 0.00 | 0.01 | 0.00 | 73 | 1010.3 |
| 20260505094902 | 57 | 174 | 0.9 | 5.2 | 0.00 | 0.01 | 0.00 | 73 | 1010.3 |
| 20260505094404 | 57 | 136 | 1.7 | 4.3 | 0.00 | 0.01 | 0.00 | 73 | 1010.4 |
| 20260505093902 | 57 | 219 | 0.9 | 6.1 | 0.00 | 0.01 | 0.00 | 73 | 1010.4 |
| 20260505093402 | 57 | 185 | 0.9 | 5.2 | 0.00 | 0.01 | 0.00 | 73 | 1010.3 |
| 20260505092907 | 57 | 161 | 0.9 | 3.5 | 0.00 | 0.01 | 0.00 | 72 | 1010.4 |
| 20260505092402 | 57 | 164 | 1.7 | 3.5 | 0.00 | 0.01 | 0.00 | 72 | 1010.4 |
| 20260505091902 | 57 | 154 | 1.7 | 4.3 | 0.00 | 0.01 | 0.00 | 72 | 1010.3 |
| 20260505091403 | 57 | 134 | 1.7 | 4.3 | 0.00 | 0.01 | 0.00 | 72 | 1010.3 |
| 20260505090956 | 57 | 148 | 1.7 | 6.1 | 0.00 | 0.01 | 0.00 | 72 | 1010.2 |
| 20260505090902 | 57 | 148 | 1.7 | 6.1 | 0.00 | 0.01 | 0.00 | 72 | 1010.2 |
| 20260505090403 | 57 | 148 | 1.7 | 4.3 | 0.00 | 0.01 | 0.00 | 73 | 1010.2 |
| 20260505085904 | 57 | 134 | 0.9 | 4.3 | 0.00 | 0.01 | 0.00 | 73 | 1010.0 |
| 20260505085403 | 56 | 102 | 0.9 | 1.7 | 0.00 | 0.01 | 0.00 | 73 | 1010.1 |
| 20260505084902 | 56 | 105 | 0.0 | 4.3 | 0.00 | 0.01 | 0.00 | 73 | 1010.0 |
| 20260505084402 | 56 | 117 | 0.0 | 0.9 | 0.00 | 0.01 | 0.00 | 73 | 1010.0 |
| 20260505084057 | 56 | 240 | 0.0 | 1.7 | 0.00 | 0.01 | 0.00 | 73 | 1009.9 |
| 20260505083902 | 56 | 240 | 0.0 | 1.7 | 0.00 | 0.01 | 0.00 | 73 | 1009.9 |
| 20260505083405 | 56 | 117 | 0.0 | 0.9 | 0.00 | 0.01 | 0.00 | 73 | 1010.0 |
| 20260505082906 | 56 | 52 | 0.0 | 0.0 | 0.00 | 0.01 | 0.00 | 73 | 1010.0 |
| 20260505082402 | 56 | 52 | 0.0 | 0.0 | 0.00 | 0.01 | 0.00 | 73 | 1010.1 |
| 20260505081902 | 56 | 154 | 0.0 | 1.7 | 0.00 | 0.01 | 0.00 | 73 | 1010.1 |
| 20260505081403 | 56 | 173 | 0.0 | 0.0 | 0.00 | 0.01 | 0.00 | 73 | 1010.1 |
| 20260505080902 | 57 | 169 | 0.0 | 1.7 | 0.00 | 0.01 | 0.00 | 72 | 1010.2 |
| 20260505080402 | 57 | 157 | 0.0 | 0.9 | 0.00 | 0.01 | 0.00 | 72 | 1010.2 |
| 20260505075907 | 57 | 111 | 0.0 | 2.6 | 0.00 | 0.01 | 0.00 | 72 | 1010.1 |
| 20260505075402 | 57 | 113 | 0.9 | 2.6 | 0.00 | 0.01 | 0.00 | 72 | 1010.1 |
| 20260505074902 | 57 | 91 | 0.9 | 2.6 | 0.00 | 0.01 | 0.00 | 71 | 1010.0 |
| 20260505074402 | 57 | 163 | 0.9 | 6.1 | 0.00 | 0.01 | 0.00 | 71 | 1010.1 |
| 20260505074133 | 58 | 118 | 0.9 | 3.5 | 0.00 | 0.01 | 0.00 | 71 | 1010.0 |
| 20260505073902 | 58 | 118 | 0.9 | 3.5 | 0.00 | 0.01 | 0.00 | 71 | 1010.0 |
| 20260505073403 | 58 | 108 | 0.9 | 2.6 | 0.00 | 0.01 | 0.00 | 70 | 1010.0 |
| 20260505072902 | 58 | 98 | 0.9 | 2.6 | 0.00 | 0.01 | 0.00 | 70 | 1009.9 |
| 20260505072405 | 58 | 104 | 0.9 | 1.7 | 0.00 | 0.01 | 0.00 | 70 | 1009.9 |
| 20260505071902 | 58 | 111 | 0.0 | 2.6 | 0.00 | 0.01 | 0.00 | 70 | 1009.8 |
| 20260505071721 | 58 | 126 | 0.0 | 1.7 | 0.00 | 0.01 | 0.00 | 70 | 1009.8 |
| 20260505071403 | 58 | 126 | 0.0 | 1.7 | 0.00 | 0.01 | 0.00 | 70 | 1009.8 |
| 20260505070903 | 58 | 101 | 0.0 | 1.7 | 0.00 | 0.01 | 0.00 | 70 | 1009.8 |
| 20260505070403 | 58 | 69 | 0.0 | 3.5 | 0.00 | 0.01 | 0.00 | 70 | 1009.8 |
| 20260505065905 | 58 | 92 | 0.0 | 1.7 | 0.00 | 0.01 | 0.00 | 70 | 1009.8 |
| 20260505065809 | 59 | 274 | 0.0 | 0.0 | 0.00 | 0.01 | 0.00 | 69 | 1009.9 |
| 20260505065403 | 59 | 274 | 0.0 | 0.0 | 0.00 | 0.01 | 0.00 | 69 | 1009.9 |
| 20260505064902 | 59 | 245 | 0.0 | 1.7 | 0.00 | 0.01 | 0.00 | 68 | 1009.9 |
| 20260505064403 | 59 | 91 | 0.0 | 1.7 | 0.00 | 0.01 | 0.00 | 68 | 1010.0 |
| 20260505064049 | 59 | 101 | 0.0 | 3.5 | 0.00 | 0.01 | 0.00 | 69 | 1010.0 |
| 20260505063903 | 59 | 101 | 0.0 | 3.5 | 0.00 | 0.01 | 0.00 | 69 | 1010.0 |
| 20260505063403 | 59 | 144 | 0.9 | 0.9 | 0.00 | 0.01 | 0.00 | 69 | 1010.0 |
| 20260505062905 | 59 | 160 | 0.9 | 2.6 | 0.00 | 0.01 | 0.00 | 69 | 1010.0 |
| 20260505062403 | 59 | 129 | 0.0 | 2.6 | 0.00 | 0.01 | 0.00 | 68 | 1010.0 |
| 20260505061903 | 59 | 159 | 0.0 | 1.7 | 0.00 | 0.01 | 0.00 | 67 | 1010.1 |
| 20260505061403 | 59 | 123 | 0.0 | 0.9 | 0.00 | 0.01 | 0.00 | 67 | 1010.0 |
| 20260505060903 | 60 | 162 | 0.0 | 1.7 | 0.00 | 0.01 | 0.00 | 66 | 1010.1 |
| 20260505060403 | 60 | 159 | 0.0 | 1.7 | 0.00 | 0.01 | 0.00 | 66 | 1010.1 |
| 20260505055906 | 60 | 180 | 0.0 | 0.9 | 0.00 | 0.01 | 0.00 | 66 | 1010.2 |
| 20260505055403 | 60 | 144 | 0.0 | 0.9 | 0.00 | 0.01 | 0.00 | 65 | 1010.3 |
| 20260505054903 | 61 | 114 | 0.9 | 2.6 | 0.00 | 0.01 | 0.00 | 65 | 1010.2 |
| 20260505054404 | 61 | 172 | 0.9 | 1.7 | 0.00 | 0.01 | 0.00 | 65 | 1010.2 |
| 20260505053904 | 61 | 137 | 0.9 | 4.3 | 0.00 | 0.01 | 0.00 | 65 | 1010.2 |
| 20260505053405 | 61 | 98 | 0.0 | 1.7 | 0.00 | 0.01 | 0.00 | 65 | 1010.1 |
| 20260505052903 | 61 | 190 | 0.0 | 0.9 | 0.00 | 0.01 | 0.00 | 64 | 1010.1 |
| 20260505052403 | 61 | 282 | 0.0 | 0.9 | 0.00 | 0.01 | 0.00 | 64 | 1010.2 |
| 20260505051903 | 62 | 298 | 0.0 | 1.7 | 0.00 | 0.01 | 0.00 | 63 | 1010.1 |
| 20260505051404 | 62 | 148 | 0.9 | 2.6 | 0.00 | 0.01 | 0.00 | 62 | 1010.2 |
| 20260505050903 | 62 | 144 | 0.9 | 2.6 | 0.00 | 0.01 | 0.00 | 62 | 1010.2 |
| 20260505050404 | 62 | 224 | 0.9 | 3.5 | 0.00 | 0.01 | 0.00 | 62 | 1010.3 |
| 20260505041403 | 63 | 150 | 1.7 | 7.0 | 0.00 | 0.01 | 0.00 | 60 | 1009.9 |
| 20260505040903 | 64 | 173 | 1.7 | 7.0 | 0.00 | 0.01 | 0.00 | 59 | 1009.9 |
| 20260505040403 | 64 | 123 | 1.7 | 4.3 | 0.00 | 0.01 | 0.00 | 59 | 1009.9 |
| 20260505035905 | 64 | 128 | 1.7 | 3.5 | 0.00 | 0.01 | 0.01 | 59 | 1009.9 |
| 20260505035403 | 64 | 174 | 1.7 | 4.3 | 0.00 | 0.01 | 0.01 | 59 | 1009.9 |
| 20260505034903 | 64 | 221 | 2.6 | 6.1 | 0.00 | 0.01 | 0.01 | 58 | 1009.9 |
| 20260505034403 | 64 | 189 | 2.6 | 6.1 | 0.00 | 0.01 | 0.01 | 58 | 1009.8 |
| 20260505033903 | 64 | 161 | 1.7 | 7.8 | 0.00 | 0.01 | 0.01 | 58 | 1009.8 |
| 20260505033403 | 64 | 212 | 1.7 | 5.2 | 0.00 | 0.01 | 0.01 | 58 | 1009.8 |
| 20260505032903 | 64 | 171 | 1.7 | 2.6 | 0.00 | 0.01 | 0.01 | 59 | 1009.8 |
| 20260505032403 | 64 | 153 | 2.6 | 7.0 | 0.00 | 0.01 | 0.01 | 57 | 1009.8 |
| 20260505031903 | 64 | 215 | 2.6 | 8.7 | 0.00 | 0.01 | 0.01 | 58 | 1009.8 |
| 20260505031404 | 64 | 187 | 2.6 | 7.8 | 0.00 | 0.01 | 0.01 | 58 | 1009.7 |
| 20260505030903 | 64 | 219 | 2.6 | 7.0 | 0.00 | 0.01 | 0.01 | 59 | 1009.8 |
| 20260505030404 | 64 | 140 | 2.6 | 5.2 | 0.00 | 0.01 | 0.01 | 59 | 1009.7 |
| 20260505025907 | 63 | 250 | 2.6 | 10.4 | 0.00 | 0.01 | 0.01 | 58 | 1009.8 |
| 20260505025403 | 63 | 178 | 2.6 | 5.2 | 0.00 | 0.01 | 0.01 | 59 | 1009.8 |
| 20260505024905 | 63 | 214 | 1.7 | 7.8 | 0.00 | 0.01 | 0.01 | 59 | 1009.8 |
| 20260505024403 | 63 | 221 | 1.7 | 7.0 | 0.00 | 0.01 | 0.01 | 59 | 1009.8 |
| 20260505023903 | 63 | 146 | 1.7 | 7.0 | 0.00 | 0.01 | 0.01 | 59 | 1009.6 |
| 20260505023403 | 63 | 186 | 0.9 | 4.3 | 0.00 | 0.01 | 0.01 | 58 | 1009.7 |
| 20260505022905 | 63 | 164 | 0.9 | 4.3 | 0.00 | 0.01 | 0.01 | 58 | 1009.7 |
| 20260505022442 | 63 | 184 | 1.7 | 2.6 | 0.00 | 0.01 | 0.01 | 58 | 1009.7 |
| 20260505022403 | 63 | 184 | 1.7 | 2.6 | 0.00 | 0.01 | 0.01 | 58 | 1009.7 |
| 20260505021904 | 63 | 183 | 1.7 | 5.2 | 0.01 | 0.01 | 0.01 | 58 | 1009.7 |
| 20260505021403 | 63 | 226 | 1.7 | 3.5 | 0.01 | 0.01 | 0.01 | 58 | 1009.9 |
| 20260505020904 | 63 | 248 | 0.9 | 3.5 | 0.01 | 0.01 | 0.01 | 58 | 1009.8 |
| 20260505020508 | 63 | 221 | 0.9 | 2.6 | 0.01 | 0.01 | 0.01 | 59 | 1009.9 |
| 20260505020403 | 63 | 221 | 0.9 | 2.6 | 0.01 | 0.01 | 0.01 | 59 | 1009.9 |
| 20260505015905 | 64 | 265 | 0.9 | 2.6 | 0.01 | 0.01 | 0.01 | 57 | 1009.8 |
| 20260505015403 | 64 | 178 | 0.9 | 4.3 | 0.01 | 0.01 | 0.01 | 58 | 1009.7 |
| 20260505014903 | 64 | 163 | 1.7 | 3.5 | 0.01 | 0.01 | 0.01 | 60 | 1009.6 |
| 20260505014403 | 64 | 221 | 1.7 | 7.0 | 0.01 | 0.01 | 0.01 | 58 | 1009.6 |
| 20260505013903 | 64 | 22 | 1.7 | 5.2 | 0.01 | 0.01 | 0.01 | 60 | 1009.6 |
| 20260505013405 | 64 | 228 | 3.5 | 6.1 | 0.01 | 0.01 | 0.01 | 60 | 1009.7 |
| 20260505012905 | 65 | 178 | 5.2 | 10.4 | 0.01 | 0.01 | 0.01 | 57 | 1009.7 |
| 20260505012403 | 65 | 225 | 4.3 | 12.2 | 0.01 | 0.01 | 0.01 | 56 | 1009.5 |
| 20260505011904 | 66 | 153 | 2.6 | 4.3 | 0.00 | 0.00 | 0.00 | 49 | 1009.4 |
| 20260505011403 | 67 | 223 | 2.6 | 4.3 | 0.00 | 0.00 | 0.00 | 47 | 1009.7 |
| 20260505010904 | 67 | 172 | 1.7 | 6.1 | 0.00 | 0.00 | 0.00 | 47 | 1009.5 |
| 20260505010403 | 67 | 183 | 1.7 | 3.5 | 0.00 | 0.00 | 0.00 | 46 | 1009.2 |
| 20260505005904 | 68 | 159 | 2.6 | 7.8 | 0.00 | 0.00 | 0.00 | 46 | 1009.1 |
| 20260505005403 | 68 | 165 | 2.6 | 4.3 | 0.00 | 0.00 | 0.00 | 45 | 1009.2 |
| 20260505004903 | 68 | 152 | 3.5 | 6.1 | 0.00 | 0.00 | 0.00 | 45 | 1009.0 |
| 20260505004403 | 68 | 154 | 3.5 | 7.8 | 0.00 | 0.00 | 0.00 | 45 | 1009.0 |
| 20260505003903 | 68 | 152 | 2.6 | 7.0 | 0.00 | 0.00 | 0.00 | 45 | 1008.9 |
| 20260505003436 | 68 | 140 | 2.6 | 7.0 | 0.00 | 0.00 | 0.00 | 44 | 1008.9 |
| 20260505003403 | 68 | 140 | 2.6 | 7.0 | 0.00 | 0.00 | 0.00 | 44 | 1008.9 |